• In Deutschland
  • Länderverzeichnis
  • Für 7 Tage
  • Wassertemperatur
  • Satellitenkarten
  • Wetterkarte
  • Widgets
  • user-avatar
    Anmelden

    Stündliche Wetter Puke

    Heute, 19 Oktober, Freitag

    Zeit Temperatur Niederschläge Wind Luftdruck Luftfeuchtigkeit
    00:00 +13°C° 0 mm 1 m/S 692 mmHg 60%
    01:00 +13°C° 0 mm 1 m/S 692 mmHg 63%
    02:00 +13°C° 0 mm 1 m/S 692 mmHg 64%
    03:00 +13°C° 0 mm 1 m/S 692 mmHg 65%
    04:00 +12°C° 0 mm 2 m/S 692 mmHg 66%
    05:00 +13°C° 0 mm 2 m/S 692 mmHg 66%
    06:00 +13°C° 0 mm 2 m/S 692 mmHg 66%
    07:00 +14°C° 0 mm 2 m/S 692 mmHg 66%
    08:00 +16°C° 0 mm 1 m/S 693 mmHg 59%
    09:00 +19°C° 0 mm 1 m/S 693 mmHg 52%
    10:00 +21°C° 0 mm 1 m/S 694 mmHg 45%
    11:00 +22°C° 0.1 mm 1 m/S 694 mmHg 44%
    12:00 +22°C° 0.1 mm 1 m/S 694 mmHg 43%
    13:00 +21°C° 0 mm 2 m/S 693 mmHg 46%
    14:00 +22°C° 0.1 mm 1 m/S 693 mmHg 48%
    15:00 +21°C° 0.1 mm 1 m/S 693 mmHg 51%
    16:00 +21°C° 0.1 mm 1 m/S 693 mmHg 53%
    17:00 +19°C° 0 mm 1 m/S 693 mmHg 59%
    18:00 +16°C° 0 mm 2 m/S 693 mmHg 64%
    19:00 +14°C° 0 mm 2 m/S 693 mmHg 70%
    20:00 +14°C° 0 mm 2 m/S 693 mmHg 72%
    21:00 +14°C° 0 mm 2 m/S 693 mmHg 74%
    22:00 +13°C° 0 mm 2 m/S 693 mmHg 76%
    23:00 +13°C° 0 mm 2 m/S 694 mmHg 78%

    Morgen, 20 Oktober, Samstag

    Zeit Temperatur Niederschläge Wind Luftdruck Luftfeuchtigkeit
    00:00 +13°C° 0 mm 2 m/S 694 mmHg 80%
    01:00 +12°C° 0 mm 2 m/S 694 mmHg 81%
    02:00 +12°C° 0 mm 2 m/S 694 mmHg 81%
    03:00 +12°C° 0 mm 2 m/S 694 mmHg 82%
    04:00 +12°C° 0 mm 2 m/S 694 mmHg 82%
    05:00 +12°C° 0 mm 2 m/S 694 mmHg 80%
    06:00 +12°C° 0 mm 2 m/S 694 mmHg 79%
    07:00 +12°C° 0 mm 2 m/S 694 mmHg 77%
    08:00 +14°C° 0 mm 2 m/S 695 mmHg 69%
    09:00 +16°C° 0 mm 2 m/S 695 mmHg 60%
    10:00 +18°C° 0 mm 3 m/S 695 mmHg 52%
    11:00 +18°C° 0 mm 3 m/S 695 mmHg 48%
    12:00 +19°C° 0 mm 3 m/S 695 mmHg 45%
    13:00 +19°C° 0 mm 3 m/S 695 mmHg 42%
    14:00 +19°C° 0 mm 3 m/S 695 mmHg 44%
    15:00 +18°C° 0 mm 3 m/S 695 mmHg 47%
    16:00 +17°C° 0 mm 3 m/S 695 mmHg 49%
    17:00 +16°C° 0 mm 3 m/S 695 mmHg 56%
    18:00 +13°C° 0 mm 3 m/S 695 mmHg 63%
    19:00 +11°C° 0 mm 3 m/S 695 mmHg 69%
    20:00 +11°C° 0 mm 3 m/S 695 mmHg 72%
    21:00 +10°C° 0 mm 3 m/S 695 mmHg 74%
    22:00 +10°C° 0 mm 3 m/S 695 mmHg 77%
    23:00 +10°C° 0 mm 3 m/S 695 mmHg 78%

    übermorgen, 21 Oktober, Sonntag

    Zeit Temperatur Niederschläge Wind Luftdruck Luftfeuchtigkeit
    00:00 +9°C° 0 mm 3 m/S 694 mmHg 80%
    01:00 +9°C° 0 mm 3 m/S 694 mmHg 81%
    02:00 +9°C° 0 mm 2 m/S 694 mmHg 82%
    03:00 +9°C° 0 mm 2 m/S 694 mmHg 82%
    04:00 +9°C° 0 mm 2 m/S 694 mmHg 83%
    05:00 +9°C° 0 mm 2 m/S 694 mmHg 81%
    06:00 +9°C° 0 mm 2 m/S 694 mmHg 79%
    07:00 +10°C° 0 mm 2 m/S 694 mmHg 77%
    08:00 +12°C° 0 mm 2 m/S 694 mmHg 70%
    09:00 +14°C° 0 mm 2 m/S 694 mmHg 62%
    10:00 +14°C° 0 mm 3 m/S 694 mmHg 54%
    11:00 +16°C° 0 mm 2 m/S 694 mmHg 53%
    12:00 +16°C° 0 mm 2 m/S 693 mmHg 51%
    13:00 +16°C° 0 mm 2 m/S 693 mmHg 50%
    14:00 +16°C° 0.2 mm 2 m/S 693 mmHg 53%
    15:00 +15°C° 0.2 mm 2 m/S 692 mmHg 56%
    16:00 +14°C° 0.2 mm 2 m/S 692 mmHg 58%
    17:00 +12°C° 0.2 mm 3 m/S 692 mmHg 62%
    18:00 +11°C° 0.2 mm 3 m/S 692 mmHg 65%
    19:00 +10°C° 0.2 mm 3 m/S 692 mmHg 69%
    20:00 +9°C° 0.2 mm 3 m/S 693 mmHg 70%
    21:00 +9°C° 0.2 mm 3 m/S 693 mmHg 71%
    22:00 +8°C° 0.2 mm 3 m/S 693 mmHg 73%
    23:00 +7°C° 0 mm 3 m/S 693 mmHg 74%

    22 Oktober, Montag

    Zeit Temperatur Niederschläge Wind Luftdruck Luftfeuchtigkeit
    00:00 +7°C° 0 mm 3 m/S 692 mmHg 76%
    01:00 +5°C° 0 mm 3 m/S 692 mmHg 77%
    02:00 +5°C° 0 mm 3 m/S 692 mmHg 77%
    03:00 +5°C° 0 mm 3 m/S 692 mmHg 77%
    04:00 +5°C° 0 mm 3 m/S 692 mmHg 76%
    05:00 +5°C° 0 mm 3 m/S 692 mmHg 76%
    06:00 +5°C° 0 mm 4 m/S 692 mmHg 75%
    07:00 +6°C° 0 mm 4 m/S 692 mmHg 74%
    08:00 +7°C° 0 mm 4 m/S 692 mmHg 69%
    09:00 +10°C° 0 mm 4 m/S 692 mmHg 64%
    10:00 +12°C° 0 mm 4 m/S 692 mmHg 58%
    11:00 +12°C° 0.1 mm 4 m/S 692 mmHg 57%
    12:00 +13°C° 0.1 mm 4 m/S 691 mmHg 56%
    13:00 +13°C° 0.1 mm 4 m/S 691 mmHg 54%
    14:00 +12°C° 0.6 mm 3 m/S 691 mmHg 60%
    15:00 +11°C° 0.6 mm 3 m/S 691 mmHg 66%
    16:00 +10°C° 0.6 mm 3 m/S 690 mmHg 72%
    17:00 +10°C° 0.6 mm 3 m/S 690 mmHg 74%
    18:00 +10°C° 0.6 mm 3 m/S 691 mmHg 76%
    19:00 +9°C° 0.6 mm 3 m/S 691 mmHg 79%
    20:00 +9°C° 0.5 mm 3 m/S 691 mmHg 79%
    21:00 +9°C° 0.5 mm 3 m/S 691 mmHg 80%
    22:00 +9°C° 0.5 mm 3 m/S 691 mmHg 81%
    23:00 +9°C° 0.3 mm 3 m/S 691 mmHg 81%

    23 Oktober, Dienstag

    Zeit Temperatur Niederschläge Wind Luftdruck Luftfeuchtigkeit
    00:00 +9°C° 0.3 mm 3 m/S 691 mmHg 82%
    01:00 +8°C° 0.3 mm 4 m/S 690 mmHg 82%
    02:00 +8°C° 0.2 mm 4 m/S 690 mmHg 83%
    03:00 +8°C° 0.2 mm 4 m/S 690 mmHg 83%
    04:00 +8°C° 0.2 mm 4 m/S 690 mmHg 83%
    05:00 +8°C° 0.2 mm 4 m/S 690 mmHg 83%
    06:00 +8°C° 0.2 mm 4 m/S 690 mmHg 83%
    07:00 +8°C° 0.2 mm 4 m/S 690 mmHg 82%
    08:00 +10°C° 0.1 mm 4 m/S 690 mmHg 79%
    09:00 +10°C° 0.1 mm 4 m/S 690 mmHg 76%
    10:00 +10°C° 0.1 mm 5 m/S 690 mmHg 72%
    11:00 +10°C° 0.2 mm 5 m/S 690 mmHg 70%
    12:00 +12°C° 0.2 mm 4 m/S 690 mmHg 68%
    13:00 +12°C° 0.2 mm 4 m/S 689 mmHg 66%
    14:00 +12°C° 0.3 mm 4 m/S 689 mmHg 68%
    15:00 +11°C° 0.3 mm 4 m/S 689 mmHg 70%
    16:00 +11°C° 0.3 mm 4 m/S 689 mmHg 72%
    17:00 +10°C° 0.5 mm 4 m/S 689 mmHg 75%
    18:00 +10°C° 0.5 mm 4 m/S 689 mmHg 77%
    19:00 +8°C° 0.5 mm 4 m/S 690 mmHg 80%
    20:00 +8°C° 0.4 mm 4 m/S 690 mmHg 81%
    21:00 +8°C° 0.4 mm 4 m/S 690 mmHg 81%
    22:00 +7°C° 0.4 mm 4 m/S 690 mmHg 82%
    23:00 +7°C° 0.4 mm 4 m/S 690 mmHg 81%

    24 Oktober, Mittwoch

    Zeit Temperatur Niederschläge Wind Luftdruck Luftfeuchtigkeit
    00:00 +7°C° 0.4 mm 4 m/S 690 mmHg 81%
    01:00 +6°C° 0.4 mm 4 m/S 689 mmHg 80%
    02:00 +6°C° 0.1 mm 4 m/S 689 mmHg 80%
    03:00 +6°C° 0.1 mm 4 m/S 689 mmHg 80%
    04:00 +6°C° 0.1 mm 4 m/S 689 mmHg 80%
    05:00 +6°C° 0 mm 4 m/S 689 mmHg 79%
    06:00 +6°C° 0 mm 4 m/S 689 mmHg 78%
    07:00 +6°C° 0 mm 4 m/S 689 mmHg 78%
    08:00 +7°C° 0 mm 4 m/S 689 mmHg 72%
    09:00 +8°C° 0 mm 4 m/S 689 mmHg 66%
    10:00 +11°C° 0 mm 4 m/S 689 mmHg 60%
    11:00 +12°C° 0 mm 3 m/S 688 mmHg 55%
    12:00 +13°C° 0 mm 3 m/S 688 mmHg 50%
    13:00 +14°C° 0 mm 3 m/S 688 mmHg 45%
    14:00 +13°C° 0 mm 3 m/S 688 mmHg 46%
    15:00 +12°C° 0 mm 3 m/S 687 mmHg 47%
    16:00 +13°C° 0 mm 2 m/S 687 mmHg 49%
    17:00 +12°C° 0 mm 2 m/S 687 mmHg 52%
    18:00 +9°C° 0 mm 2 m/S 688 mmHg 56%
    19:00 +8°C° 0 mm 2 m/S 688 mmHg 59%
    20:00 +8°C° 0.1 mm 2 m/S 688 mmHg 61%
    21:00 +8°C° 0.1 mm 2 m/S 688 mmHg 63%
    22:00 +9°C° 0.1 mm 2 m/S 689 mmHg 65%
    23:00 +8°C° 0 mm 2 m/S 689 mmHg 68%
    Mehr zeigen